Weather History for KBFW - November, 2012

Change the Weather History Date:

Tuesday, November 6, 2012

  Actual Average Record
Temperature  
Mean Temperature 34 °F -  
Max Temperature 37 °F 38 °F 62 °F (2001)
Min Temperature 32 °F 24 °F 10 °F (2003)
Degree Days  
Heating Degree Days 30    
Moisture  
Dew Point 31 °F    
Average Humidity 87    
Maximum Humidity 93    
Minimum Humidity 81    
Precipitation  
Precipitation 0.15 in - - ()
Sea Level Pressure  
Sea Level Pressure 29.77 in    
Wind  
Wind Speed 2 mph (South)    
Max Wind Speed 14 mph    
Max Gust Speed 18 mph    
Visibility 6 miles    
Events Rain    
Averages and records for this station are not official NWS values.
T = Trace of Precipitation, MM = Missing Value Source: NWS Daily Summary

Daily Weather History Graph

Daily Weather History Graph

Search for Another Location

Airport or City:

Trip Planner

Search our weather history database for the weather conditions in past years. The results will help you decide how hot, cold, wet, or windy it might be!

Date:

Astronomy

Nov. 06, 2012 Rise Set
Actual Time 6:57 AM CST 4:40 PM CST
Civil Twilight 6:24 AM CST 5:13 PM CST
Nautical Twilight 5:48 AM CST 5:49 PM CST
Astronomical Twilight 5:12 AM CST 6:25 PM CST
Moon 11:25 PM CST 12:46 PM CST
Length of Visible Light 10h 48m
Length of Day
9h 43m
Waning Gibbous, 53% of the Moon is Illuminated
Nov 6
Waning Gibbous
Nov 6
Last Quarter
Nov 13
New
Nov 20
First Quarter
Nov 28
Full

Hourly Weather History & Observations

Time (CST) Temp. Windchill Dew Point Humidity Pressure Visibility Wind Dir Wind Speed Gust Speed Precip Events Conditions
12:13 AM 33.8 °F - 30.2 °F 87% 29.89 in 3.0 mi Calm Calm - N/A   Drizzle
12:33 AM 33.8 °F - 30.2 °F 87% 29.87 in 2.5 mi Calm Calm - N/A   Mostly Cloudy
12:53 AM 33.8 °F - 30.2 °F 87% 29.86 in 3.0 mi Calm Calm - N/A   Scattered Clouds
1:13 AM 33.8 °F - 30.2 °F 87% 29.85 in 4.0 mi Calm Calm - N/A   Scattered Clouds
1:33 AM 33.8 °F - 30.2 °F 87% 29.84 in 5.0 mi Calm Calm - N/A   Scattered Clouds
1:53 AM 33.8 °F - 30.2 °F 87% 29.83 in 5.0 mi Calm Calm - N/A   Scattered Clouds
2:13 AM 33.8 °F - 30.2 °F 87% 29.82 in 5.0 mi Calm Calm - N/A   Scattered Clouds
2:33 AM 33.8 °F - 30.2 °F 87% 29.82 in 4.0 mi Calm Calm - N/A Rain Light Rain
2:53 AM 33.8 °F - 30.2 °F 87% 29.80 in 3.0 mi Calm Calm - N/A Rain Rain
3:13 AM 33.8 °F - 30.2 °F 87% 29.79 in 5.0 mi Calm Calm - N/A Rain Light Rain
3:33 AM 33.8 °F 27.7 °F 30.2 °F 87% 29.78 in 5.0 mi SSE 6.9 mph - 0.01 in   Drizzle
3:53 AM 35.6 °F 30.7 °F 30.2 °F 81% 29.77 in 5.0 mi South 5.8 mph - 0.01 in   Drizzle
4:13 AM 35.6 °F 29.9 °F 30.2 °F 81% 29.76 in 4.0 mi South 6.9 mph - 0.02 in Rain Light Rain
4:33 AM 35.6 °F - 30.2 °F 81% 29.75 in 4.0 mi Calm Calm - 0.03 in   Drizzle
4:53 AM 33.8 °F 27.0 °F 30.2 °F 87% 29.74 in 4.0 mi South 8.1 mph - 0.01 in   Drizzle
5:13 AM 33.8 °F 24.8 °F 30.2 °F 87% 29.74 in 3.0 mi South 12.7 mph 18.4 mph 0.02 in Rain Light Rain
5:33 AM 33.8 °F 24.8 °F 30.2 °F 87% 29.73 in 3.0 mi South 12.7 mph 17.3 mph 0.03 in Rain Light Rain
5:53 AM 33.8 °F 24.3 °F 30.2 °F 87% 29.72 in 3.0 mi South 13.8 mph 18.4 mph N/A Rain Rain
6:13 AM 33.8 °F 24.8 °F 30.2 °F 87% 29.72 in 3.0 mi South 12.7 mph 17.3 mph 0.01 in Rain Rain
6:33 AM 33.8 °F 25.8 °F 30.2 °F 87% 29.71 in 3.0 mi South 10.4 mph 16.1 mph 0.02 in Rain Rain
6:53 AM 33.8 °F 25.3 °F 30.2 °F 87% 29.71 in 3.0 mi South 11.5 mph - N/A Rain Light Rain
7:13 AM 33.8 °F 27.0 °F 30.2 °F 87% 29.71 in 2.5 mi South 8.1 mph - 0.01 in Rain Light Rain
7:33 AM 33.8 °F 27.0 °F 30.2 °F 87% 29.71 in 3.0 mi South 8.1 mph - 0.02 in Rain Light Rain
7:53 AM 33.8 °F 28.6 °F 30.2 °F 87% 29.71 in 2.5 mi South 5.8 mph - N/A   Drizzle
8:13 AM 33.8 °F 27.7 °F 30.2 °F 87% 29.71 in 3.0 mi South 6.9 mph - 0.01 in   Drizzle
8:33 AM 33.8 °F 30.8 °F 30.2 °F 87% 29.71 in 1.8 mi South 3.5 mph - 0.02 in Rain Rain
8:54 AM 33.8 °F 30.8 °F 30.2 °F 87% 29.71 in 1.8 mi South 3.5 mph - N/A Rain Rain
9:13 AM 33.8 °F - 30.2 °F 87% 29.71 in 2.0 mi Calm Calm - 0.01 in Rain Rain
9:53 AM 33.8 °F 29.6 °F 30.2 °F 87% 29.71 in 3.0 mi South 4.6 mph - N/A   Light Drizzle
10:13 AM 33.8 °F 28.6 °F 30.2 °F 87% 29.71 in 3.0 mi South 5.8 mph - 0.01 in Rain Light Rain
10:33 AM 33.8 °F 28.6 °F 30.2 °F 87% 29.71 in 3.0 mi South 5.8 mph - 0.01 in Rain Light Rain
10:53 AM 33.8 °F 29.6 °F 30.2 °F 87% 29.70 in 3.0 mi South 4.6 mph - N/A   Light Drizzle
11:13 AM 33.8 °F 28.6 °F 30.2 °F 87% 29.70 in 4.0 mi South 5.8 mph - N/A   Light Drizzle
11:33 AM 33.8 °F 30.8 °F 32.0 °F 93% 29.70 in 4.0 mi SSW 3.5 mph - N/A   Light Drizzle
11:53 AM 35.6 °F 30.7 °F 32.0 °F 87% 29.70 in 5.0 mi South 5.8 mph - N/A   Light Drizzle
12:13 PM 35.6 °F - 32.0 °F 87% 29.69 in 4.0 mi Calm Calm - N/A   Light Drizzle
12:33 PM 35.6 °F - 33.8 °F 93% 29.69 in 7.0 mi Calm Calm - N/A   Overcast
12:53 PM 35.6 °F - 33.8 °F 93% 29.70 in 10.0 mi Calm Calm - N/A   Light Drizzle
1:13 PM 35.6 °F - 33.8 °F 93% 29.70 in 7.0 mi Calm Calm - N/A   Light Drizzle
1:33 PM 37.4 °F - 33.8 °F 87% 29.70 in 4.0 mi Calm Calm - N/A   Light Drizzle
1:53 PM 37.4 °F - 32.0 °F 81% 29.70 in 7.0 mi Calm Calm - N/A   Scattered Clouds
2:13 PM 37.4 °F - 32.0 °F 81% 29.71 in 10.0 mi Calm Calm - N/A   Clear
2:33 PM 37.4 °F - 32.0 °F 81% 29.72 in 10.0 mi Calm Calm - N/A   Clear
2:53 PM 37.4 °F - 32.0 °F 81% 29.72 in 10.0 mi Calm Calm - N/A   Scattered Clouds
3:13 PM 37.4 °F - 32.0 °F 81% 29.73 in 10.0 mi Calm Calm - N/A   Scattered Clouds
3:33 PM 35.6 °F - 32.0 °F 87% 29.74 in 10.0 mi Calm Calm - N/A   Scattered Clouds
3:53 PM 35.6 °F - 32.0 °F 87% 29.75 in 10.0 mi Calm Calm - N/A   Clear
4:13 PM 35.6 °F - 30.2 °F 81% 29.76 in 10.0 mi Calm Calm - N/A   Scattered Clouds
4:33 PM 35.6 °F - 30.2 °F 81% 29.77 in 10.0 mi Calm Calm - N/A   Scattered Clouds
4:53 PM 35.6 °F - 30.2 °F 81% 29.77 in 10.0 mi Calm Calm - N/A   Scattered Clouds
5:13 PM 35.6 °F - 30.2 °F 81% 29.78 in 10.0 mi Calm Calm - N/A   Mostly Cloudy
5:33 PM 35.6 °F - 30.2 °F 81% 29.78 in 10.0 mi Calm Calm - N/A   Mostly Cloudy
5:53 PM 35.6 °F - 30.2 °F 81% 29.79 in 10.0 mi Calm Calm - N/A   Mostly Cloudy
6:13 PM 33.8 °F - 30.2 °F 87% 29.81 in 10.0 mi Calm Calm - N/A   Mostly Cloudy
6:33 PM 33.8 °F - 30.2 °F 87% 29.81 in 10.0 mi Calm Calm - N/A   Mostly Cloudy
6:53 PM 33.8 °F - 30.2 °F 87% 29.82 in 10.0 mi Calm Calm - N/A   Scattered Clouds
7:13 PM 33.8 °F - 30.2 °F 87% 29.82 in 10.0 mi Calm Calm - N/A   Clear
7:33 PM 33.8 °F - 30.2 °F 87% 29.83 in 7.0 mi Calm Calm - N/A   Scattered Clouds
7:53 PM 33.8 °F - 30.2 °F 87% 29.83 in 10.0 mi Calm Calm - N/A   Scattered Clouds
8:13 PM 33.8 °F - 30.2 °F 87% 29.84 in 10.0 mi Calm Calm - N/A   Mostly Cloudy
8:33 PM 32.0 °F - 30.2 °F 93% 29.84 in 10.0 mi Calm Calm - N/A   Scattered Clouds
8:53 PM 32.0 °F - 30.2 °F 93% 29.84 in 7.0 mi Calm Calm - N/A   Clear
9:13 PM 32.0 °F - 30.2 °F 93% 29.85 in 7.0 mi Calm Calm - N/A   Clear
9:33 PM 32.0 °F - 30.2 °F 93% 29.86 in 5.0 mi Calm Calm - N/A   Scattered Clouds
9:53 PM 32.0 °F - 28.4 °F 87% 29.86 in 4.0 mi Calm Calm - N/A   Mostly Cloudy
10:13 PM 32.0 °F - 28.4 °F 87% 29.87 in 7.0 mi Calm Calm - N/A   Scattered Clouds
10:33 PM 32.0 °F - 28.4 °F 87% 29.86 in 7.0 mi Calm Calm - N/A   Clear
10:53 PM 32.0 °F - 28.4 °F 87% 29.87 in 7.0 mi Calm Calm - N/A   Clear
11:13 PM 32.0 °F - 28.4 °F 87% 29.88 in 10.0 mi Calm Calm - N/A   Clear
11:33 PM 32.0 °F - 30.2 °F 93% 29.89 in 7.0 mi Calm Calm - N/A   Scattered Clouds
11:53 PM 33.8 °F - 30.2 °F 87% 29.89 in 10.0 mi Calm Calm - N/A   Scattered Clouds